TimeEET,TemperatureF,Dew PointF,Humidity,Sea Level PressureIn,VisibilityMPH,Wind Direction,Wind SpeedMPH,Gust SpeedMPH,PrecipitationIn,Events,Conditions,WindDirDegrees,DateUTC
12:00 AM,89.6,48.2,24,29.83,-9999.0,NW,6.9,-,N/A,,Clear,310,2013-09-03 22:00:00
1:00 AM,86.0,53.6,33,29.83,-9999.0,NW,11.5,-,N/A,,Clear,310,2013-09-03 23:00:00
2:00 AM,85,55,26,29.79,6,NW,9.2,,,,,310,2013-09-04 00:00:00
2:00 AM,86.0,55.4,35,29.80,-9999.0,NW,9.2,-,N/A,,Clear,310,2013-09-04 00:00:00
3:00 AM,84.2,53.6,35,29.83,-9999.0,NNW,5.8,-,N/A,,Clear,330,2013-09-04 01:00:00
4:00 AM,82.4,53.6,37,29.80,-9999.0,NNW,5.8,-,N/A,,Clear,330,2013-09-04 02:00:00
5:00 AM,80.6,51.8,37,29.83,-9999.0,NNW,5.8,-,N/A,,Clear,340,2013-09-04 03:00:00
6:00 AM,78.8,51.8,39,29.83,-9999.0,NE,3.5,-,N/A,,Clear,40,2013-09-04 04:00:00
7:00 AM,80.6,51.8,37,29.86,-9999.0,North,3.5,-,N/A,,Clear,360,2013-09-04 05:00:00
8:00 AM,86,53,22,29.83,6,North,8.1,,,,,350,2013-09-04 06:00:00
8:00 AM,86.0,53.6,33,29.86,-9999.0,North,8.1,-,N/A,,Clear,350,2013-09-04 06:00:00
9:00 AM,89.6,53.6,29,29.86,-9999.0,North,13.8,-,N/A,,Clear,350,2013-09-04 07:00:00
10:00 AM,91.4,53.6,28,29.86,-9999.0,North,11.5,-,N/A,,Clear,350,2013-09-04 08:00:00
11:00 AM,96.8,53.6,23,29.83,-9999.0,North,10.4,-,N/A,,Clear,350,2013-09-04 09:00:00
12:00 PM,98.6,48.2,18,29.77,-9999.0,NNW,10.4,-,N/A,,Clear,330,2013-09-04 10:00:00
1:00 PM,102.2,46.4,15,29.77,-9999.0,North,10.4,-,N/A,,Clear,350,2013-09-04 11:00:00
2:00 PM,103,43,7,29.72,6,North,10.4,,,,,350,2013-09-04 12:00:00
2:00 PM,104.0,42.8,12,29.77,-9999.0,North,10.4,-,N/A,,Clear,350,2013-09-04 12:00:00
3:00 PM,104.0,39.2,11,29.74,-9999.0,NNW,11.5,-,N/A,,Clear,340,2013-09-04 13:00:00
4:00 PM,104.0,33.8,9,29.74,-9999.0,NW,10.4,-,N/A,,Clear,320,2013-09-04 14:00:00
5:00 PM,102.2,35.6,10,29.74,-9999.0,NNW,10.4,-,N/A,,Clear,340,2013-09-04 15:00:00
6:00 PM,98.6,32.0,10,29.74,-9999.0,North,15.0,-,N/A,,Clear,350,2013-09-04 16:00:00
7:00 PM,95.0,35.6,12,29.77,-9999.0,NNW,12.7,-,N/A,,Clear,340,2013-09-04 17:00:00
8:00 PM,92,39,8,29.75,6,NNW,10.4,,,,,330,2013-09-04 18:00:00
8:00 PM,91.4,39.2,16,29.77,-9999.0,NNW,10.4,-,N/A,,Clear,330,2013-09-04 18:00:00
9:00 PM,89.6,37.4,16,29.80,-9999.0,NW,8.1,-,N/A,,Clear,320,2013-09-04 19:00:00
10:00 PM,87.8,41.0,19,29.80,-9999.0,NW,9.2,-,N/A,,Clear,310,2013-09-04 20:00:00
11:00 PM,86.0,44.6,23,29.80,-9999.0,NNW,6.9,-,N/A,,Clear,330,2013-09-04 21:00:00